Вернуться в каталог

COSMOS 375

АктивенВоенныеLEO
NORAD 4598·PAYLOAD·🇷🇺 Russia

Запущен Oct 30, 1970 с Baikonur Cosmodrome

Loading…

Ближайшие Пролёты (ближайшие 24 часа)

TLE

СвежийSource: Space-Track

Эпоха: Sep 14, 2026, 12:32 UTC

1 04598U 70091A   26257.52237616  .00000014  00000-0  49280-4 0  9999
2 04598  62.8216  98.9631 0935981 195.6423 161.3739 12.97468715640172

Отслеживайте COSMOS 375 в реальном времени с AllMySat

Download on the App Store